Location: Sungai Bunut
(2.6333°N, 113.7333°E)
Time: 17:19:02
(UTC+00:00)

Vanguard 3 - Pass Details

Date: 09 December 2023
Orbit: 508 x 3239 km, 33.4° (Epoch: 28 February)

Event Time Altitude Azimuth Distance (km) Brightness Sun altitude
Rises 09:30:32 0° 235° (SW) 6,754 13.8 9.7°
Reaches altitude 10° 09:34:43 10° 236° (SW) 5,930 13.9 8.7°
Maximum altitude 09:54:37 84° 323° (NW) 3,173 10.3 4.2°
Drops below altitude 10° 10:11:28 10° 51° (NE) 5,147 10.6 0.3°
Sets 10:14:49 0° 52° (NE) 5,867 10.9 -0.5°
